Left ArrowRight Arrow

39.92423, -83.80882

Hourly Observations for June 17, 2024

Temp ( °F °C ) Dew Point ( °F °C ) Humidity (%) Winds ( mph kmh ) Pressure ( in mb ) Visibility ( mi km ) Precip ( " mm )
12:56 am 00:56 Clear 76 24.4 62 16.7 62 62 S 5 7 30.02 1017 10 16 0.00 0.00
1:56 am 01:56 Clear 75 23.9 63 17.2 66 66 S 6 9 30.02 1017 10 16 0.00 0.00
2:56 am 02:56 Clear 74 23.3 64 17.8 71 71 S 5 7 30.02 1017 10 16 0.00 0.00
3:56 am 03:56 Clear 72 22.2 64 17.8 76 76 SSE 5 7 30.02 1017 10 16 0.00 0.00
4:56 am 04:56 Clear 72 22.2 65 18.3 79 79 S 5 7 30.03 1017 10 16 0.00 0.00
5:56 am 05:56 Clear 71 21.7 67 19.4 87 87 SSW 5 7 30.04 1017 10 16 0.00 0.00
6:56 am 06:56 Mostly Sunny 73 22.8 68 20 84 84 S 6 9 30.05 1018 10 16 0.00 0.00
7:56 am 07:56 Mostly Cloudy 77 25 70 21.1 79 79 SW 8 13 30.07 1018 10 16 0.00 0.00
8:56 am 08:56 Sunny 80 26.7 71 21.7 74 74 SW 10 17 30.08 1019 10 16 0.00 0.00
9:56 am 09:56 Mostly Cloudy 82 27.8 72 22.2 72 72 WSW 10 17 30.10 1019 10 16 0.00 0.00
10:56 am 10:56 Sunny 87 30.6 71 21.7 59 59 SW 10 17 30.10 1019 10 16 0.00 0.00
11:56 am 11:56 Sunny 89 31.7 73 22.8 59 59 WSW 8 13 30.09 1019 10 16 0.00 0.00
12:56 pm 12:56 Mostly Sunny 91 32.8 72 22.2 54 54 SW 10 17 30.08 1019 10 16 0.00 0.00
1:56 pm 13:56 Mostly Cloudy with Light Rain 89 31.7 71 21.7 56 56 WSW 8 13 30.07 1018 9 14 0.01 0.13
2:06 pm 14:06 Mostly Cloudy with Thunderstorms 86 30 73 23 66 66 SW 7 11 30.04 1017 10 16 0.01 0.13
2:35 pm 14:35 Partly Cloudy 82 28 72 22 70 70 WSW 7 11 30.03 1017 10 16 0.01 0.13
2:56 pm 14:56 Sunny 89 31.7 72 22.2 57 57 SW 9 15 30.06 1018 9 14 0.01 0.13
3:56 pm 15:56 Sunny 82 27.8 67 19.4 60 60 SW 9 15 30.06 1018 10 16 0.00 0.00
4:56 pm 16:56 Sunny 84 28.9 70 21.1 63 63 SSE 5 7 30.04 1017 10 16 0.00 0.00
5:56 pm 17:56 Sunny 87 30.6 70 21.1 57 57 Calm 30.03 1017 10 16 0.00 0.00
6:56 pm 18:56 Sunny 87 30.6 72 22.2 61 61 SSE 7 11 30.04 1017 10 16 0.00 0.00
7:56 pm 19:56 Sunny 86 30 73 22.8 65 65 SSE 9 15 30.04 1017 10 16 0.00 0.00
8:56 pm 20:56 Sunny 81 27.2 72 22.2 74 74 SE 6 9 30.04 1017 10 16 0.00 0.00
9:56 pm 21:56 Clear 81 27.2 72 22.2 74 74 S 6 9 30.06 1018 10 16 0.00 0.00
10:56 pm 22:56 Clear 78 25.6 72 22.2 82 82 SSE 6 9 30.07 1018 10 16 0.00 0.00
11:56 pm 23:56 Clear 76 24.4 71 21.7 85 85 SSE 6 9 30.07 1018 10 16 0.01 0.25

Powered by Vaisala Xweather